This demonstration page uses our WeatherBlox Daily Observations layout. Learn more.

Left ArrowRight Arrow

Hourly Observations for August 2, 2022

Temp ( °F °C ) Dew Point ( °F °C ) Humidity (%) Winds ( mph kmh ) Pressure ( in mb ) Visibility ( mi km ) Precip ( " mm )
12:56 am 00:56 Mostly Cloudy 80 26.9 75 23.7 83 83 Calm 29.87 1012 10 16 0.00 0.00
1:56 am 01:56 Mostly Cloudy 80 26.9 75 23.7 83 83 E 5 7 29.86 1011 10 16 0.00 0.00
2:56 am 02:56 Mostly Cloudy 79 26.1 74 23.5 86 86 Calm 29.84 1010 10 16 0.00 0.00
3:56 am 03:56 Mostly Clear 77 25.2 73 22.8 87 87 ESE 5 7 29.83 1010 10 16 0.00 0.00
4:56 am 04:56 Partly Cloudy 77 25.2 72 22.3 84 84 SSE 6 9 29.83 1010 10 16 0.00 0.00
5:56 am 05:56 Clear 75 23.8 70 21.3 86 86 SE 5 7 29.83 1010 10 16 0.00 0.00
6:56 am 06:56 Sunny 75 23.9 69 20.8 83 83 SSE 5 7 29.83 1010 10 16 0.00 0.00
7:56 am 07:56 Sunny 77 25.1 69 20.8 77 77 SSE 3 6 29.83 1010 10 16 0.00 0.00
8:56 am 08:56 undefined 81 27.3 68 19.9 64 64 S 8 13 29.83 1010 10 16 0.00 0.00
9:56 am 09:56 Sunny 84 29.1 67 19.7 57 57 SSW 10 17 29.81 1010 10 16 0.00 0.00
10:56 am 10:56 Sunny 89 31.7 67 19.6 49 49 SSW 13 20 29.80 1009 10 16 0.00 0.00
11:56 am 11:56 Sunny 92 33.5 67 19.2 43 43 SSW 12 19 29.80 1009 10 16 0.00 0.00
12:56 pm 12:56 Partly Cloudy 95 34.9 67 19.6 41 41 S 14 22 29.79 1009 10 16 0.00 0.00
1:56 pm 13:56 Sunny 97 36.3 68 20.1 39 39 S 13 20 29.77 1008 10 16 0.00 0.00
2:56 pm 14:56 Sunny 100 37.7 67 19.6 35 35 S 15 24 29.75 1007 10 16 0.00 0.00
3:56 pm 15:56 Sunny 101 38.3 67 19.6 34 34 S 16 26 29.72 1007 10 16 0.00 0.00
4:56 pm 16:56 Sunny 101 38.2 65 18.6 32 32 S 14 22 29.72 1007 10 16 0.00 0.00
5:56 pm 17:56 Sunny 100 37.7 70 21.3 39 39 S 13 20 29.71 1006 10 16 0.00 0.00
6:56 pm 18:56 Sunny 97 36 74 23.2 48 48 S 13 20 29.70 1006 10 16 0.00 0.00
7:56 pm 19:56 Sunny 93 34.1 76 24.3 57 57 SSE 8 13 29.70 1006 10 16 0.00 0.00
8:56 pm 20:56 Clear 88 31.2 75 24 66 66 SE 9 15 29.69 1005 10 16 0.00 0.00
9:56 pm 21:56 Clear 87 30.8 74 23.4 65 65 SSE 10 17 29.70 1006 10 16 0.00 0.00
10:56 pm 22:56 Clear 87 30.4 73 22.5 63 63 SSE 9 15 29.70 1006 10 16 0.00 0.00
11:56 pm 23:56 Clear 86 29.9 70 21 59 59 S 12 19 29.70 1006 10 16 0.00 0.00

Powered by AerisWeather